Location: Stockholm
(59.3293°N, 18.0686°E)
Time: 04:31:42
(UTC+02:00)

N. Korean satellite - Visible Passes

Search period start: 18 October 2018 00:00
Search period end: 28 October 2018 00:00
Orbit: 459 x 510 km, 97.2° (Epoch: 16 October)

Date Brightness Start Highest point End Pass type
(mag) Time Alt. Az. Time Alt. Az. Time Alt. Az.
18 Oct 9.8 06:22:21 10° NE 06:25:11 20° E 06:27:57 10° SE visible
18 Oct 8.4 18:40:04 10° SSW 18:43:35 38° W 18:47:08 10° NNW visible
19 Oct 10.3 05:58:43 10° NE 06:00:28 13° E 06:02:12 10° ESE visible
19 Oct 7.3 18:15:21 10° S 18:19:04 63° WSW 18:22:49 10° NNW visible
19 Oct 10.5 19:52:35 10° W 19:53:19 10° W 19:54:03 10° WNW visible
20 Oct 10.0 19:26:07 10° SW 19:28:35 17° W 19:31:03 10° NW visible
21 Oct 9.0 06:42:15 10° NNE 06:45:32 29° E 06:48:45 10° SSE visible
21 Oct 9.2 19:00:44 10° SSW 19:03:54 26° W 19:07:07 10° NW visible
22 Oct 9.9 06:18:13 10° NE 06:20:53 19° E 06:23:30 10° SE visible
22 Oct 8.2 18:35:46 10° S 18:39:19 41° W 18:42:55 10° NNW visible
23 Oct 10.4 05:54:46 10° ENE 05:56:09 12° E 05:57:31 10° ESE visible
23 Oct 7.1 18:11:04 10° S 18:14:48 69° WSW 18:18:34 10° NNW visible
23 Oct 10.4 19:47:46 10° WSW 19:49:00 11° W 19:50:14 10° WNW visible
24 Oct 9.8 19:21:39 10° SW 19:24:15 18° W 19:26:52 10° NW visible
25 Oct 9.2 06:38:02 10° NNE 06:41:12 27° E 06:44:19 10° SSE visible
25 Oct 9.0 18:56:21 10° SSW 18:59:36 28° W 19:02:51 10° NNW visible
26 Oct 9.9 06:14:04 10° NE 06:16:32 17° E 06:18:57 10° SE visible
26 Oct 8.0 18:31:24 10° S 18:35:01 44° W 18:38:37 10° NNW visible
27 Oct 10.5 05:50:56 10° ENE 05:51:46 11° E 05:52:35 10° E visible
27 Oct 6.9 18:06:45 10° S 18:10:29 75° WSW 18:14:14 10° NNW visible
27 Oct 10.3 19:43:05 10° WSW 19:44:37 12° W 19:46:10 10° WNW visible
